Regional Weather Roundup
Issued by NWS State College, PA

Home | Current Version | Previous Version | Graphics & Text | Print | Product List | Glossary Off
Versions: 1 2 3 4 5 6 7 8 9 10 11 12 13 14 15 16 17 18 19 20 21 22 23 24 25 26 27 28 29 30 31 32 33 34 35 36 37 38 39 40 41 42 43 44 45 46 47 48 49 50

000
ASUS41 KCTP 201410
RWRCTP
REGIONAL WEATHER ROUNDUP
NATIONAL WEATHER SERVICE STATE COLLEGE PA
1000 AM EDT WED SEP 20 2017

Note: "fair" indicates few or no clouds below 12,000 feet with no
significant weather and/or obstructions to visibility.

* = STATION THAT DOES NOT REPORT PRECIPITATION /E.G. RAIN...SNOW...ETC/
    THUNDER OR FOG.

PAZ002>004-007>009-013>016-020>023-029>032-201500-
WESTERN PENNSYLVANIA

CITY           SKY/WX    TMP DP  RH WIND       PRES   REMARKS
ERIE           NOT AVBL
MEADVILLE      SUNNY     72  62  71 S3        30.07S
FRANKLIN*      SUNNY     67  62  84 CALM      30.09R
NEW CASTLE     CLOUDY    68  64  87 CALM      30.07S
BEAVER COUNTY  MOSUNNY   72  61  68 CALM      30.07R
BUTLER*        MOSUNNY   70  63  78 E3        30.07S
PITTSBURGH INT PTSUNNY   71  64  78 CALM      30.06R
PITTSBURGH     SUNNY     69  61  75 CALM      30.06R
INDIANA*       SUNNY     68  63  83 CALM      30.10S
LATROBE        SUNNY     64  64 100 CALM      30.08R
WASHINGTON CO* SUNNY     72  64  78 CALM      30.07R
$$

PAZ004>006-010>012-017>019-024>028-033>037-041-042-045-046-049>053-201500-
CENTRAL PENNSYLVANIA

CITY           SKY/WX    TMP DP  RH WIND       PRES   REMARKS
BRADFORD       SUNNY     70  60  70 CALM      30.10R
DUBOIS         SUNNY     67  59  75 CALM      30.07S
CLEARFIELD     FOG       58  58 100 CALM      30.08S VSB<1/4
JOHNSTOWN      SUNNY     67  62  84 CALM      30.09S
ALTOONA        SUNNY     62  62 100 CALM      30.07R
STATE COLLEGE  FOG       61  61 100 CALM      30.07R VSB 1/8
WILLIAMSPORT   MOSUNNY   66  62  87 W9        30.02S
SELINSGROVE    SUNNY     70  64  81 CALM      30.02R
FT INDIANTOWN  MOSUNNY   76  63  64 N3        29.97F
CAPITAL CITY   SUNNY     75  60  59 W7        29.99R
HARRISBURG     SUNNY     75  63  66 NW10      29.98R
YORK           CLOUDY    74  64  71 NW8       29.99R
$$

PAZ038>040-043-044-047-048-054-055-060>062-067>071-201500-
EASTERN PENNSYLVANIA

CITY           SKY/WX    TMP DP  RH WIND       PRES   REMARKS
SCRANTON       SUNNY     70  61  73 VRB3      30.02R
MOUNT POCONO   SUNNY     70  61  73 N13       30.01R
ALLENTOWN      SUNNY     76  63  64 N10       29.95R
QUAKERTOWN*    SUNNY     73  63  68 N13       29.95S
READING        SUNNY     76  65  68 N8        29.95S
LANCASTER      CLOUDY    74  65  73 N9        29.96S
COATESVILLE    CLOUDY    73  64  73 N10       29.96F
POTTSTOWN      NOT AVBL
BLUE BELL      SUNNY     73  63  68 N9        29.94R
DOYLESTOWN     MOSUNNY   70  63  78 N10       29.92S
WILLOW GROVE   NOT AVBL
NORTH PHILA    CLOUDY    74  63  68 N13G25    29.91F
PHILADELPHIA   MOSUNNY   75  63  66 N15       29.91S
$$



USA.gov is the U.S. government's official web portal to all federal, state and local government web resources and services.